Regional Weather Roundup
Issued by NWS

Home | Current Version | Previous Version | Text Only | Print | Product List | Glossary On
Versions: 1 2 3 4 5 6 7 8 9 10 11 12 13 14 15 16 17 18 19 20 21 22 23 24 25 26 27 28 29 30 31 32 33 34 35 36 37 38 39 40 41 42 43 44 45 46 47 48 49 50
000
ASUS43 KLOT 301113
RWRIL

ILLINOIS REGIONAL WEATHER ROUNDUP
NATIONAL WEATHER SERVICE CHICAGO/ROMEOVILLE IL
600 AM CDT FRI SEP 30 2016

NOTE: "FAIR" INDICATES FEW OR NO CLOUDS BELOW 12,000 FEET WITH NO
SIGNIFICANT WEATHER AND/OR OBSTRUCTIONS TO VISIBILITY.

* THESE STATIONS ARE NOT UNDER NWS QUALITY CONTROL. THEY ALSO MAY NOT
  REPORT WEATHER SUCH AS PRECIPITATION OR FOG.

ILZ001-002-007-009-015-016-024-301200-
NORTHWEST ILLINOIS

CITY           SKY/WX    TMP DP  RH WIND       PRES   REMARKS
MOLINE         CLOUDY    59  53  80 N8        30.20S
STERLING*      CLOUDY    59  56  89 N9        30.19S
SAVANNA*       CLOUDY    58  55  87 N7        30.21S
$$

ILZ003-004-008-010-011-017-018-301200-
NORTH CENTRAL ILLINOIS

CITY           SKY/WX    TMP DP  RH WIND       PRES   REMARKS
ROCKFORD       DRIZZLE   60  57  89 N14       30.21S
FREEPORT*      CLOUDY    58  54  89 N9        30.22F
ROCHELLE*      CLOUDY    58  57  97 N13G18    30.17F FOG
DE KALB*       CLOUDY    59  58  96 N9        30.17S
$$

ILZ005-006-012>014-019>023-301200-
NORTHEAST ILLINOIS

CITY           SKY/WX    TMP DP  RH WIND       PRES   REMARKS
CHICAGO-OHARE  CLOUDY    61  58  90 NE10      30.15S
CHICAGO-MIDWAY DRIZZLE   62  59  90 NE13      30.14R FOG
AURORA         CLOUDY    61  58  90 NE21G28   30.15F
LANSING*       RAIN      60  60 100 NE10      30.13S
JOLIET*        CLOUDY    61  61  98 N6        30.14S
WAUKEGAN       CLOUDY    62  58  86 NE8       30.17S
DUPAGE AIRPORT LGT RAIN  60  58  92 NE10      30.16R FOG
KANKAKEE*      CLOUDY    60  58  96 N8        30.11F
WHEELING       LGT RAIN  62  58  86 NE8       30.17S
MORRIS*        CLOUDY    60  59  95 NE3       30.12S FOG
ROMEOVILLE*    RAIN      60  60 100 NE9       30.14S
NORTHERLY ISL    N/A     61  58  90 NE16        N/A
$$

LMZ740>746-301200-
SOUTHERN LAKE MICHIGAN

STATION/POSITION SKY/WX   TEMP    WIND        PRES    VSBY  WAVE
                          AIR SEA DIR/SP/G                  HT/PER
                          (F)     (DEG/KT/KT) (MB)    (MI)  (FT/S)
SOUTHERN BUOY              63 68   60/ 17/ 19 1021.4R         5/ 6
WILMETTE HARBOR            61 56   80/ 14/ 19   N/A           6/ 6
HARRISON CRIB              64      50/ 22/ 23   N/A
BURNHAM HARBOR             61      40/ 12/ 17   N/A
CALUMET HARBOR             62      30/ 13/ 18 1020.1R
BURNS HARBOR               62      50/ 18/ 22 1020.3S
MICHIGAN CITY              60      20/ 19/ 21   N/A
MICHIGAN CITY 6N           61 64   40/ 16/ 19   N/A           7/ 6
ST. JOSEPH                 57 56   10/ 10/ 12 1020.6          3/ 5
$$

ILZ025>027-034>036-040-047-049-050-058-095>099-301200-
WEST-CENTRAL ILLINOIS

CITY           SKY/WX    TMP DP  RH WIND       PRES   REMARKS
QUINCY         PTCLDY    57  53  86 N10       30.17F
GALESBURG*     CLOUDY    58  55  89 N10       30.18S
MACOMB*        CLOUDY    59  55  86 N9        30.19F
JACKSONVILLE*  CLOUDY    58  56  92 NW6       30.14S
PITTSFIELD*    CLOUDY    60  56  85 N6        30.16S
$$

ILZ028>032-037-038-041>044-048-051>054-059>061-301200-
CENTRAL ILLINOIS

CITY           SKY/WX    TMP DP  RH WIND       PRES   REMARKS
PONTIAC        CLOUDY    61  61 100 N7        30.12F
BLOOMINGTON    LGT RAIN  59  58  96 N13       30.11F FOG
DECATUR        CLOUDY    60  58  92 N10       30.09S
PEORIA         CLOUDY    58  58 100 N7        30.14S
LACON*         CLOUDY    58  57  97 N8        30.13F FOG
LINCOLN*       CLOUDY    60  60 100 N7        30.10F FOG
SPRINGFIELD    CLOUDY    60  58  92 N9        30.13R
TAYLORVILLE    DRIZZLE   58  58  98 NW7       30.10S
$$

ILZ033-039-045-046-055>057-062-063-301200-
EAST-CENTRAL ILLINOIS

CITY           SKY/WX    TMP DP  RH WIND       PRES   REMARKS
CHAMPAIGN      CLOUDY    60  57  89 NE13      30.08R
RANTOUL*       CLOUDY    61  59  95 N9        30.08R
MATTOON        CLOUDY    59  57  93 N10       30.05R
PARIS*         LGT RAIN  59  59 100 CALM      30.07R
$$

ILZ079-100>102-301200-
SOUTHWEST ILLINOIS

CITY           SKY/WX    TMP DP  RH WIND       PRES   REMARKS
ALTON          CLOUDY    58  57  95 NW5       30.11F FOG
BELLEVILLE     MOCLDY    60  60  99 N5        30.09S
CAHOKIA*       CLOUDY    61  56  83 N8        30.11F
SPARTA*        CLOUDY    59  57  94 NW7       30.11S
$$

ILZ064>066-069>071-074>076-080>082-084>086-088>090-092>094-301200-
SOUTH-CENTRAL ILLINOIS

CITY           SKY/WX    TMP DP  RH WIND       PRES   REMARKS
CARBONDALE     CLOUDY    59  59 100 NW7       30.08S
CAIRO*         PTCLDY    58  57  96 NW5       30.08S
EFFINGHAM*     CLOUDY    60  60 100 NW9       30.07S
MARION         CLOUDY    61  59  94 CALM      30.08S
MT. VERNON     CLOUDY    59  54  82 CALM      30.07F
CENTRALIA*     CLOUDY    60  59  96 NW7       30.07S
SALEM*         CLOUDY    61  58  91 NW6       30.07F FOG
METROPOLIS*    CLOUDY    60  58  92 NW5       30.07S
$$

ILZ067-068-072-073-078-083-087-091-301200-
SOUTHEAST ILLINOIS

CITY           SKY/WX    TMP DP  RH WIND       PRES   REMARKS
LAWRENCEVILLE  RAIN      60  57  89 N8        30.04R FOG
FLORA*         CLOUDY    60  59  96 NW6       30.04F FOG
FAIRFIELD*     CLOUDY    58  58  99 CALM      30.04S
HARRISBURG*    CLOUDY    58  57  97 NW7       30.06F
ROBINSON*      LGT RAIN  58  58  99 N6        30.05R
CARMI*         CLOUDY    56  56 100 W6        30.03F FOG
$$

ABBREVIATIONS USED IN REMARKS
   TC - TEMPERATURE IN CELSIUS
  WCI - WIND CHILL INDEX
   HX - HEAT INDEX
  VSB - VISIBILITY
$$





USA.gov is the U.S. government's official web portal to all federal, state and local government web resources and services.